CZ-6A DEB, 54917

Orbit data source: Space-Track

CZ-6A DEB, 54917 is space debris in SSO originally from a launch on Fri, 11 Nov 2022 UTC launched from the Taiyaun Space Center, China (TSC). Debris objects in space refer to the collection of defunct objects orbiting the Earth. Examples of debris include non-operational satellites, rocket bodies, and fragments generated from explosions, collisions, or faulty payload assembly.

Loading next visibility...
Identifier
54917, 2022-151RE
Orbit
SSO
Country
Flag of CNCN / PRC
Related business
Manufacturer
SAST
Mission
Spacecraft
Bus & Motor
Unknown
Mass
Unknown
Launch date (UTC)
2022-11-11 (4 years ago)
Launch vehicle
Unknown
Launch site
Taiyaun Space Center, China (TSC)
Object type
Payload
Rocket body
Debris
Shape & HBR
Unknown shape, 0.1 m
Radar Cross Section
Medium (>0.1 m² and <1 m²)

Expand to show TLE details & history
Last TLE update: 3 days ago

TLE from 3 days ago
0 CZ-6A DEB
1 54917U 22151RE  26261.13199288  .00005381  00000-0  75744-3 0  9992
2 54917  98.6337 339.3557 0065607 334.9587  24.8442 14.76306631200971
Epoch: 2026-09-18T03:10Z
TLE epoch observation values (Epoch: 2026-09-18T03:10:04.184Z)
Latitude
-0.0001°
Longitude
-65.22099°
Altitude
602.257 km
Speed
7.581 km/s
True Right ascension
22h 37m 25s
True Declination
0° 00' 00"
Sunlit
Object was in full shadow at epoch
Visualization orbit readout
Latitude
Unknown
Longitude
Unknown
Altitude
Unknown
Speed
Unknown
Apparent Right ascension
Unknown
Apparent Declination
Unknown
Sunlit
N/A
Visualization observer readout
Local Sidereal Time
17:10:13
Azimuth
Unknown
Elevation
Unknown
Doppler factor
Unknown
Orbital elements
Apogee altitude
684.118 km
Perigee altitude
592.055 km
Semi-major axis
7,016.223 km
Eccentricity
0.00656
Inclination
98.6337°
RAAN
339.3557°
Arg. of periapsis
334.9587°
True anomaly
25.16244°
Mean anomaly
24.8442°
Eccentric anomaly
25.00308°
Mean motion
3.69307 °/min
Orbital period
97.48 mins
BSTAR
0.00075744
Loading maneuver chart data...
Computing Atmospheric mass density...

Documentation

Showing up to 5 results
|